Location: Aiyekoto
(8.4333°N, 4.3667°E)
Time: 14:52:08
(UTC+00:00)

SL-4 R/B - Pass Details

Date: 07 June 2020
Orbit: 428 x 666 km, 51.6° (Epoch: 07 July)

Event Time Altitude Azimuth Distance (km) Brightness Sun altitude
Rises 04:34:22 0° 320° (NW) 2,864 5.5 -11.9°
Reaches altitude 10° 04:36:45 10° 318° (NW) 1,924 4.6 -11.4°
Maximum altitude 04:41:07 69° 235° (SW) 603 2.0 -10.4°
Drops below altitude 10° 04:45:09 10° 151° (SSE) 1,776 4.7 -9.5°
Sets 04:47:16 0° 149° (SSE) 2,624 5.6 -9.0°
